TimePST,TemperatureF,Dew PointF,Humidity,Sea Level PressureIn,VisibilityMPH,Wind Direction,Wind SpeedMPH,Gust SpeedMPH,PrecipitationIn,Events,Conditions,WindDirDegrees,DateUTC
12:56 AM,37.0,25.0,62,29.70,10.0,WNW,6.9,-,N/A,,Scattered Clouds,290,2012-11-09 08:56:00
1:56 AM,35.1,24.1,64,29.71,10.0,NNW,3.5,-,N/A,,Partly Cloudy,330,2012-11-09 09:56:00
2:56 AM,33.1,21.9,64,29.71,10.0,Calm,Calm,-,N/A,,Clear,0,2012-11-09 10:56:00
3:56 AM,30.0,19.9,66,29.71,10.0,Calm,Calm,-,N/A,,Overcast,0,2012-11-09 11:56:00
4:56 AM,28.0,19.0,69,29.71,10.0,Calm,Calm,-,N/A,,Scattered Clouds,0,2012-11-09 12:56:00
5:56 AM,27.0,19.9,75,29.71,10.0,Calm,Calm,-,N/A,,Partly Cloudy,0,2012-11-09 13:56:00
6:18 AM,24.8,17.6,74,29.77,10.0,NW,6.9,-,N/A,,Mostly Cloudy,320,2012-11-09 14:18:00
6:56 AM,28.9,21.0,72,29.73,10.0,South,3.5,-,N/A,,Mostly Cloudy,170,2012-11-09 14:56:00
7:56 AM,35.1,23.0,61,29.73,10.0,Calm,Calm,-,N/A,,Mostly Cloudy,0,2012-11-09 15:56:00
8:56 AM,35.1,21.9,59,29.74,10.0,North,3.5,-,N/A,,Overcast,350,2012-11-09 16:56:00
9:56 AM,39.9,19.0,43,29.73,10.0,NW,8.1,-,N/A,,Mostly Cloudy,320,2012-11-09 17:56:00
10:56 AM,42.1,12.9,31,29.73,10.0,NNW,8.1,-,N/A,,Mostly Cloudy,340,2012-11-09 18:56:00
11:56 AM,42.1,12.9,31,29.70,10.0,West,8.1,-,N/A,,Mostly Cloudy,280,2012-11-09 19:56:00
12:56 PM,43.0,12.0,28,29.69,10.0,West,10.4,-,N/A,,Mostly Cloudy,280,2012-11-09 20:56:00
1:56 PM,41.0,17.1,38,29.70,10.0,West,12.7,-,N/A,,Mostly Cloudy,270,2012-11-09 21:56:00
2:56 PM,39.0,18.0,43,29.71,10.0,West,13.8,-,N/A,,Overcast,270,2012-11-09 22:56:00
3:27 PM,37.4,23.0,56,29.77,10.0,NW,11.5,-,N/A,,Mostly Cloudy,320,2012-11-09 23:27:00
3:56 PM,37.0,23.0,57,29.71,10.0,NW,9.2,-,N/A,,Mostly Cloudy,310,2012-11-09 23:56:00
4:56 PM,35.1,21.9,59,29.72,10.0,West,12.7,20.7,N/A,,Mostly Cloudy,270,2012-11-10 00:56:00
5:56 PM,30.9,24.1,76,29.74,10.0,West,8.1,-,N/A,,Mostly Cloudy,260,2012-11-10 01:56:00
6:56 PM,30.0,24.1,79,29.74,10.0,SW,8.1,-,N/A,,Mostly Cloudy,230,2012-11-10 02:56:00
7:56 PM,28.9,24.1,82,29.75,10.0,SW,5.8,-,N/A,,Mostly Cloudy,230,2012-11-10 03:56:00
8:56 PM,28.0,23.0,81,29.76,10.0,WSW,9.2,-,N/A,,Mostly Cloudy,250,2012-11-10 04:56:00
9:56 PM,27.0,23.0,85,29.76,10.0,WSW,3.5,-,N/A,,Mostly Cloudy,240,2012-11-10 05:56:00
10:12 PM,24.8,19.4,80,29.82,10.0,SE,4.6,-,N/A,,Mostly Cloudy,140,2012-11-10 06:12:00
10:56 PM,25.0,21.0,85,29.76,10.0,SSW,3.5,-,N/A,,Mostly Cloudy,200,2012-11-10 06:56:00
11:56 PM,28.9,23.0,78,29.76,10.0,SW,5.8,-,N/A,,Overcast,230,2012-11-10 07:56:00